Weather History for Whiteman AFB, MO

Change the Weather History Date:

Friday, January 18, 2013

  Actual Average Record
Temperature  
Mean Temperature 40 °F -  
Max Temperature 53 °F 37 °F 53 °F (2006)
Min Temperature 27 °F 20 °F 3 °F (1997)
Degree Days  
Heating Degree Days 25    
Moisture  
Dew Point 30 °F    
Average Humidity 68    
Maximum Humidity 96    
Minimum Humidity 45    
Precipitation  
Precipitation 0.00 in - - ()
Sea Level Pressure  
Sea Level Pressure 30.26 in    
Wind  
Wind Speed 15 mph (SSW)    
Max Wind Speed 29 mph    
Max Gust Speed 36 mph    
Visibility 10 miles    
Events      
Averages and records for this station are not official NWS values.
T = Trace of Precipitation, MM = Missing Value Source: NWS Daily Summary

Daily Weather History Graph

Daily Weather History Graph

Search for Another Location

Airport:

Trip Planner

Search our weather history database for the weather conditions in past years. The results will help you decide how hot, cold, wet, or windy it might be!

Date:

Astronomy

Jan. 18, 2013 Rise Set
Actual Time 7:29 AM CST 5:20 PM CST
Civil Twilight 7:00 AM CST 5:49 PM CST
Nautical Twilight 6:28 AM CST 6:21 PM CST
Astronomical Twilight 5:56 AM CST 6:53 PM CST
Moon 11:13 AM CST (1/18) 12:06 AM CST (1/18)
Length of Visible Light 10h 48m
Length of Day
9h 50m
Waxing Crescent, 47% of the Moon is Illuminated
Jan 18
Waxing Crescent
Jan 18
First Quarter
Jan 26
Full
Feb 3
Last Quarter
Feb 10
New

Hourly Weather History & Observations

Time (CST) Temp. Windchill Dew Point Humidity Pressure Visibility Wind Dir Wind Speed Gust Speed Precip Events Conditions
12:55 AM 28.2 °F 21.0 °F 26.4 °F 93% 30.46 in 10.0 mi South 6.9 mph - N/A   Clear
1:55 AM 28.2 °F 18.9 °F 27.1 °F 96% 30.46 in 10.0 mi South 10.4 mph - N/A   Clear
2:55 AM 27.7 °F 18.2 °F 26.8 °F 96% 30.46 in 10.0 mi SSW 10.4 mph - N/A   Clear
3:55 AM 29.1 °F 19.4 °F 27.9 °F 95% 30.43 in 10.0 mi SSW 11.5 mph - N/A   Clear
4:55 AM 29.1 °F 20.0 °F 27.7 °F 94% 30.41 in 10.0 mi South 10.4 mph - N/A   Clear
5:55 AM 29.3 °F 19.6 °F 27.7 °F 94% 30.40 in 10.0 mi SSW 11.5 mph - N/A   Clear
6:55 AM 28.8 °F 19.0 °F 27.3 °F 94% 30.40 in 10.0 mi South 11.5 mph - N/A   Clear
7:55 AM 29.8 °F 20.9 °F 27.0 °F 89% 30.39 in 10.0 mi South 10.4 mph - N/A   Clear
8:55 AM 34.7 °F 23.4 °F 29.1 °F 80% 30.37 in 10.0 mi SSW 20.7 mph 24.2 mph N/A   Clear
9:55 AM 39.2 °F 29.6 °F 30.6 °F 71% 30.35 in 10.0 mi SSW 19.6 mph - N/A   Clear
10:55 AM 44.1 °F 35.7 °F 32.0 °F 63% 30.32 in 10.0 mi SSW 20.7 mph - N/A   Clear
11:55 AM 48.4 °F - 33.4 °F 56% 30.27 in 10.0 mi SSW 18.4 mph 25.3 mph N/A   Clear
12:55 PM 50.4 °F - 32.7 °F 51% 30.20 in 10.0 mi SSW 25.3 mph 32.2 mph N/A   Clear
1:55 PM 52.2 °F - 32.7 °F 48% 30.16 in 10.0 mi SW 28.8 mph 35.7 mph N/A   Clear
2:55 PM 53.4 °F - 32.4 °F 45% 30.14 in 10.0 mi SSW 20.7 mph 34.5 mph N/A   Clear
3:55 PM 52.9 °F - 32.7 °F 46% 30.12 in 10.0 mi SSW 28.8 mph - N/A   Clear
4:55 PM 50.9 °F - 31.5 °F 47% 30.11 in 10.0 mi SSW 26.5 mph 35.7 mph N/A   Clear
5:55 PM 49.1 °F - 30.4 °F 49% 30.12 in 10.0 mi SSW 21.9 mph 32.2 mph N/A   Clear
6:55 PM 48.7 °F - 29.5 °F 47% 30.12 in 10.0 mi SW 24.2 mph 34.5 mph N/A   Clear
7:55 PM 47.3 °F - 29.8 °F 51% 30.12 in 10.0 mi SW 20.7 mph 29.9 mph N/A   Clear
8:55 PM 45.9 °F 38.0 °F 29.8 °F 54% 30.11 in 10.0 mi SW 20.7 mph - N/A   Clear
9:55 PM 44.4 °F 36.1 °F 30.2 °F 57% 30.11 in 10.0 mi SW 20.7 mph 28.8 mph N/A   Clear
10:55 PM 43.7 °F 34.7 °F 30.0 °F 59% 30.09 in 10.0 mi SSW 23.0 mph 28.8 mph N/A   Clear
11:55 PM 42.8 °F 34.3 °F 30.4 °F 62% 30.08 in 10.0 mi SSW 19.6 mph 26.5 mph N/A   Clear